Terug naar catalogus

THORAD AGENA D DEB

ActiefPO
NORAD 4929·DEBRIS·🇺🇸 United States

Gelanceerd Apr 8, 1970 vanaf Vandenberg Space Force Base

Loading…

Volgende Passages (komende 24 uur)

TLE

VersSource: Space-Track

Epoch: Sep 13, 2026, 04:16 UTC

1 04929U 70025FV  26256.17839303  .00000239  00000-0  99194-3 0  9992
2 04929  99.6759 233.8729 0447594 246.5893 177.6542 12.65774062595668

Volg THORAD AGENA D DEB in realtime met AllMySat

Download on the App Store